This demonstration page uses our WeatherBlox Daily Observations layout. Learn more.

Left ArrowRight Arrow

41.12389, -100.76542

Hourly Observations for September 1, 2017

Temp ( °F °C ) Dew Point ( °F °C ) Humidity (%) Winds ( mph kmh ) Pressure ( in mb ) Visibility ( mi km ) Precip ( " mm )
12:53 am 00:53 Mostly Cloudy 69 20.6 59 15 70 70 N 10 17 30.05 1018 10 16 0.00 0.00
1:53 am 01:53 Mostly Cloudy with Light Rain 68 20 61 16.1 78 78 S 8 13 30.01 1016 10 16 0.00 0.03
2:53 am 02:53 Mostly Cloudy 67 19.4 59 15 76 76 S 14 22 29.95 1014 10 16 0.00 0.03
3:53 am 03:53 Cloudy 66 18.9 59 15 78 78 S 12 19 29.94 1014 10 16 0.00 0.03
4:53 am 04:53 Mostly Cloudy 66 18.9 59 15 78 78 S 9 15 29.94 1014 10 16 0.00 0.00
5:53 am 05:53 Cloudy 67 19.4 58 14.4 73 73 S 12 19 29.94 1014 10 16 0.00 0.00
6:53 am 06:53 Mostly Cloudy 68 20 57 13.9 68 68 S 13 20 29.93 1014 10 16 0.00 0.00
7:53 am 07:53 Partly Cloudy with Light Rain 67 19.4 57 13.9 71 71 S 10 17 29.97 1015 10 16 0.00 0.03
8:53 am 08:53 Mostly Cloudy 67 19.4 58 14.4 73 73 VRB 5 7 30.00 1016 10 16 0.00 0.03
9:53 am 09:53 Cloudy with Light Rain 66 18.9 60 15.6 81 81 Calm 29.99 1016 10 16 0.01 0.25
10:53 am 10:53 Cloudy 68 20 60 15.6 76 76 SW 5 7 29.99 1016 10 16 0.00 0.03
11:26 am 11:26 Partly Cloudy with Nearby Thunderstorms 69 20.6 60 15.6 73 73 SSW 9 15 29.91 1013 10 16 0.00 0.00
11:41 am 11:41 Mostly Sunny 68 20 61 16.1 78 78 S 12 19 29.91 1013 10 16 0.00 0.03
11:53 am 11:53 Sunny 69 20.6 62 16.7 78 78 S 10 17 29.96 1015 10 16 0.00 0.03
12:53 pm 12:53 Sunny 76 24.4 62 16.7 62 62 SW 13 20 29.96 1015 10 16 0.00 0.00
1:53 pm 13:53 Sunny 77 25 62 16.7 60 60 SSW 12 19 29.94 1014 10 16 0.00 0.00
2:53 pm 14:53 Sunny 80 26.7 62 16.7 54 54 SSW 10 17 29.93 1014 10 16 0.00 0.00
3:53 pm 15:53 Sunny 81 27.2 62 16.7 53 53 SW 9 15 29.92 1013 10 16 0.00 0.00
4:53 pm 16:53 Sunny 82 27.8 62 16.7 51 51 SSW 9 15 29.91 1013 10 16 0.00 0.00
5:53 pm 17:53 Sunny 82 27.8 64 17.8 55 55 S 6 9 29.90 1013 10 16 0.00 0.00
6:53 pm 18:53 Sunny 80 26.7 64 17.8 58 58 S 8 13 29.91 1013 10 16 0.00 0.00
7:53 pm 19:53 Sunny 76 24.4 62 16.7 62 62 S 7 11 29.92 1013 10 16 0.00 0.00
8:53 pm 20:53 Clear 71 21.7 62 16.7 73 73 SSE 6 9 29.95 1014 10 16 0.00 0.00
9:53 pm 21:53 Clear 71 21.7 62 16.7 73 73 S 5 7 29.97 1015 10 16 0.00 0.00
10:53 pm 22:53 Clear 70 21.1 63 17.2 79 79 S 5 7 29.98 1015 10 16 0.00 0.00
11:53 pm 23:53 Clear 67 19.4 62 16.7 84 84 Calm 29.99 1016 10 16 0.00 0.00

Powered by AerisWeather